STARLINK-2095 (47679 NORAD) Tracking and Keplerian Element Data
This shows tracking and keplerian element data for the satellite.
Feedback or suggestion? Click here.
Element | Value |
Catalog | 47679 |
Name | STARLINK-2095 |
Epoch Orbit | 183 |
Epoch Day | 56.91667824 |
Epoch Year | 2021 |
RAAN | 53.6697 |
Inclination | 53.049 |
Eccentricity | 0.0001149 |
Argument of Perigee | 66.6689 |
Mean Anonmoly | 23.7565 |
Mean Motion | 15.79476319 |
Decay Rate | -0.0106903 |
L1 | 1 47679U 21012BM 21056.91667824 -.01069030 00000-0 -64090-2 0 9998 |
L2 | 2 47679 53.0490 53.6697 0001149 66.6689 23.7565 15.79476319 1830 |
Live tracking and technical data element details for STARLINK-2095 (NORAD 47679). STARLINK-2095 can be tracked NOW for your location showing map with azimuth and elevation plus other details from your city location.
Track the satellite on the map from your city or location and see movement details for azimuth, elevation, latitude, longitude, range, height, and movement on the map or in text.
IsCatalogInMostPopularTable: catalog: 47679, numindb: 1
Update: records affected: 1
GetName: 47679 STARLINK-2095
Hit Count: updated at: Fri, 26 Feb 2021 10:17:02 GMT